Location: ???? ??
(36.0534°N, 43.5630°E)
Time: 00:46:56
(UTC+00:00)

Meteor 2-15 - Pass Details

Date: 18 September 2019
Orbit: 936 x 956 km, 82.5° (Epoch: 21 October)

Event Time Altitude Azimuth Distance (km) Brightness Sun altitude
Rises 15:54:39 0° 184° (S) 3,610 7.4 -9.9°
Reaches altitude 10° 15:57:07 10° 184° (S) 2,670 6.7 -10.4°
Maximum altitude 16:03:14 87° 96° (E) 961 4.4 -11.6°
Drops below altitude 10° 16:09:25 10° 8° (N) 2,692 6.9 -12.9°
Sets 16:11:56 0° 8° (N) 3,641 7.6 -13.4°
